When you browse on this site, cookies collect data to enhance your experience and personalize the content and advertising you see.
Visit our Privacy Policy to learn more. By continuing to use the site, you agree to this use of cookies and data.
  • In Österreich
  • Länderverzeichnis
  • Für 7 Tage
  • Wassertemperatur
  • Satellitenkarten
  • Wetterkarte
  • News
  • Widgets
  • user-avatar
    Anmelden

    Stündliche Wetter Statesboro

    Heute, 23 Juli, Dienstag

    Zeit Temperatur Niederschläge Wind Luftdruck Luftfeuchtigkeit
    00:00 +27°C° 0.1 mm 3 m/S 754 mmHg 81%
    01:00 +27°C° 0.1 mm 3 m/S 754 mmHg 82%
    02:00 +26°C° 0 mm 3 m/S 754 mmHg 84%
    03:00 +26°C° 0 mm 3 m/S 753 mmHg 85%
    04:00 +26°C° 0 mm 2 m/S 753 mmHg 87%
    05:00 +26°C° 0 mm 3 m/S 753 mmHg 86%
    06:00 +26°C° 0 mm 3 m/S 753 mmHg 86%
    07:00 +26°C° 0 mm 3 m/S 753 mmHg 85%
    08:00 +28°C° 0 mm 3 m/S 753 mmHg 77%
    09:00 +30°C° 0 mm 4 m/S 753 mmHg 69%
    10:00 +33°C° 0 mm 4 m/S 753 mmHg 61%
    11:00 +34°C° 0 mm 4 m/S 753 mmHg 57%
    12:00 +35°C° 0 mm 5 m/S 753 mmHg 52%
    13:00 +36°C° 0 mm 5 m/S 752 mmHg 48%
    14:00 +36°C° 0 mm 5 m/S 752 mmHg 48%
    15:00 +36°C° 0 mm 4 m/S 751 mmHg 49%
    16:00 +36°C° 0 mm 4 m/S 751 mmHg 49%
    17:00 +33°C° 5.1 mm 5 m/S 751 mmHg 64%
    18:00 +28°C° 5.1 mm 5 m/S 752 mmHg 78%
    19:00 +25°C° 5.1 mm 5 m/S 752 mmHg 93%
    20:00 +25°C° 0.7 mm 4 m/S 752 mmHg 92%
    21:00 +25°C° 0.7 mm 2 m/S 753 mmHg 91%
    22:00 +24°C° 0.7 mm 1 m/S 753 mmHg 91%
    23:00 +22°C° 0.3 mm 0 m/S 753 mmHg 92%

    Morgen, 24 Juli, Mittwoch

    Zeit Temperatur Niederschläge Wind Luftdruck Luftfeuchtigkeit
    00:00 +22°C° 0.3 mm 0 m/S 753 mmHg 93%
    01:00 +22°C° 0.3 mm 0 m/S 753 mmHg 93%
    02:00 +22°C° 0 mm 0 m/S 753 mmHg 94%
    03:00 +24°C° 0 mm 1 m/S 753 mmHg 94%
    04:00 +23°C° 0 mm 1 m/S 753 mmHg 94%
    05:00 +24°C° 0.2 mm 1 m/S 753 mmHg 93%
    06:00 +24°C° 0.2 mm 1 m/S 754 mmHg 93%
    07:00 +24°C° 0.2 mm 2 m/S 754 mmHg 92%
    08:00 +25°C° 0.1 mm 2 m/S 754 mmHg 88%
    09:00 +26°C° 0.1 mm 3 m/S 755 mmHg 84%
    10:00 +27°C° 0.1 mm 4 m/S 755 mmHg 80%
    11:00 +28°C° 0.2 mm 4 m/S 755 mmHg 73%
    12:00 +29°C° 0.2 mm 4 m/S 755 mmHg 66%
    13:00 +32°C° 0.2 mm 4 m/S 755 mmHg 59%
    14:00 +32°C° 0.2 mm 4 m/S 754 mmHg 58%
    15:00 +32°C° 0.2 mm 4 m/S 754 mmHg 57%
    16:00 +32°C° 0.2 mm 4 m/S 753 mmHg 55%
    17:00 +30°C° 0 mm 3 m/S 754 mmHg 61%
    18:00 +29°C° 0 mm 2 m/S 754 mmHg 67%
    19:00 +27°C° 0 mm 2 m/S 754 mmHg 73%
    20:00 +27°C° 0 mm 1 m/S 755 mmHg 75%
    21:00 +26°C° 0 mm 1 m/S 755 mmHg 77%
    22:00 +25°C° 0 mm 1 m/S 755 mmHg 80%
    23:00 +25°C° 0 mm 1 m/S 755 mmHg 81%

    übermorgen, 25 Juli, Donnerstag

    Zeit Temperatur Niederschläge Wind Luftdruck Luftfeuchtigkeit
    00:00 +24°C° 0 mm 1 m/S 755 mmHg 82%
    01:00 +24°C° 0 mm 1 m/S 755 mmHg 84%
    02:00 +24°C° 0 mm 2 m/S 755 mmHg 83%
    03:00 +23°C° 0 mm 2 m/S 755 mmHg 83%
    04:00 +23°C° 0 mm 2 m/S 755 mmHg 83%
    05:00 +23°C° 0 mm 2 m/S 756 mmHg 82%
    06:00 +24°C° 0 mm 3 m/S 756 mmHg 81%
    07:00 +24°C° 0 mm 3 m/S 757 mmHg 81%
    08:00 +26°C° 0 mm 3 m/S 757 mmHg 73%
    09:00 +27°C° 0 mm 4 m/S 757 mmHg 65%
    10:00 +29°C° 0 mm 5 m/S 757 mmHg 58%
    11:00 +30°C° 0 mm 5 m/S 757 mmHg 54%
    12:00 +32°C° 0 mm 5 m/S 757 mmHg 49%
    13:00 +34°C° 0 mm 5 m/S 757 mmHg 45%
    14:00 +33°C° 0.3 mm 5 m/S 757 mmHg 51%
    15:00 +32°C° 0.3 mm 5 m/S 757 mmHg 56%
    16:00 +30°C° 0.3 mm 5 m/S 756 mmHg 62%
    17:00 +29°C° 0.4 mm 4 m/S 757 mmHg 69%
    18:00 +27°C° 0.4 mm 3 m/S 757 mmHg 77%
    19:00 +26°C° 0.4 mm 2 m/S 757 mmHg 84%
    20:00 +25°C° 0 mm 2 m/S 757 mmHg 86%
    21:00 +25°C° 0 mm 2 m/S 758 mmHg 87%
    22:00 +24°C° 0 mm 1 m/S 758 mmHg 88%
    23:00 +24°C° 0 mm 2 m/S 758 mmHg 87%

    26 Juli, Freitag

    Zeit Temperatur Niederschläge Wind Luftdruck Luftfeuchtigkeit
    00:00 +24°C° 0 mm 2 m/S 758 mmHg 86%
    01:00 +23°C° 0 mm 2 m/S 758 mmHg 84%
    02:00 +23°C° 0 mm 2 m/S 758 mmHg 84%
    03:00 +23°C° 0 mm 2 m/S 757 mmHg 84%
    04:00 +23°C° 0 mm 2 m/S 757 mmHg 84%
    05:00 +23°C° 0 mm 2 m/S 758 mmHg 84%
    06:00 +24°C° 0 mm 3 m/S 758 mmHg 83%
    07:00 +24°C° 0 mm 3 m/S 759 mmHg 83%
    08:00 +26°C° 0.1 mm 3 m/S 759 mmHg 79%
    09:00 +27°C° 0.1 mm 3 m/S 759 mmHg 76%
    10:00 +28°C° 0.1 mm 3 m/S 760 mmHg 72%
    11:00 +28°C° 1.2 mm 2 m/S 759 mmHg 74%
    12:00 +28°C° 1.2 mm 2 m/S 759 mmHg 75%
    13:00 +28°C° 1.2 mm 2 m/S 759 mmHg 77%
    14:00 +28°C° 1.5 mm 2 m/S 759 mmHg 78%
    15:00 +28°C° 1.5 mm 2 m/S 759 mmHg 78%
    16:00 +28°C° 1.5 mm 2 m/S 758 mmHg 79%
    17:00 +27°C° 0.1 mm 2 m/S 759 mmHg 82%
    18:00 +26°C° 0.1 mm 2 m/S 759 mmHg 85%
    19:00 +26°C° 0.1 mm 2 m/S 759 mmHg 87%
    20:00 +25°C° 0 mm 1 m/S 759 mmHg 89%
    21:00 +24°C° 0 mm 1 m/S 759 mmHg 91%
    22:00 +23°C° 0 mm 1 m/S 760 mmHg 93%
    23:00 +23°C° 0 mm 1 m/S 760 mmHg 92%

    27 Juli, Samstag

    Zeit Temperatur Niederschläge Wind Luftdruck Luftfeuchtigkeit
    00:00 +23°C° 0 mm 2 m/S 759 mmHg 92%
    01:00 +23°C° 0 mm 2 m/S 759 mmHg 91%
    02:00 +23°C° 0 mm 2 m/S 759 mmHg 91%
    03:00 +23°C° 0 mm 2 m/S 759 mmHg 91%
    04:00 +23°C° 0 mm 2 m/S 759 mmHg 91%
    05:00 +22°C° 0 mm 3 m/S 760 mmHg 90%
    06:00 +24°C° 0 mm 3 m/S 760 mmHg 89%
    07:00 +23°C° 0 mm 4 m/S 760 mmHg 88%
    08:00 +26°C° 0 mm 4 m/S 761 mmHg 81%
    09:00 +28°C° 0 mm 4 m/S 761 mmHg 75%
    10:00 +30°C° 0 mm 4 m/S 761 mmHg 68%
    11:00 +31°C° 0 mm 3 m/S 761 mmHg 64%
    12:00 +31°C° 0 mm 3 m/S 761 mmHg 61%
    13:00 +32°C° 0 mm 2 m/S 760 mmHg 57%
    14:00 +34°C° 0 mm 2 m/S 760 mmHg 56%
    15:00 +34°C° 0 mm 2 m/S 760 mmHg 56%
    16:00 +34°C° 0 mm 2 m/S 759 mmHg 55%
    17:00 +32°C° 0 mm 2 m/S 759 mmHg 60%
    18:00 +31°C° 0 mm 1 m/S 759 mmHg 64%
    19:00 +30°C° 0 mm 1 m/S 760 mmHg 69%
    20:00 +29°C° 0 mm 1 m/S 760 mmHg 72%
    21:00 +28°C° 0 mm 1 m/S 760 mmHg 75%
    22:00 +27°C° 0 mm 1 m/S 760 mmHg 78%
    23:00 +26°C° 0 mm 1 m/S 760 mmHg 81%

    28 Juli, Sonntag

    Zeit Temperatur Niederschläge Wind Luftdruck Luftfeuchtigkeit
    00:00 +26°C° 0 mm 1 m/S 760 mmHg 85%
    01:00 +25°C° 0 mm 1 m/S 760 mmHg 89%
    02:00 +25°C° 0 mm 1 m/S 760 mmHg 90%
    03:00 +25°C° 0 mm 1 m/S 760 mmHg 91%
    04:00 +24°C° 0 mm 1 m/S 760 mmHg 92%
    05:00 +25°C° 0 mm 2 m/S 760 mmHg 91%
    06:00 +25°C° 0 mm 2 m/S 760 mmHg 89%
    07:00 +25°C° 0 mm 2 m/S 761 mmHg 88%
    08:00 +27°C° 0 mm 2 m/S 761 mmHg 80%
    09:00 +29°C° 0 mm 2 m/S 761 mmHg 73%
    10:00 +30°C° 0 mm 2 m/S 761 mmHg 65%
    11:00 +31°C° 0 mm 2 m/S 761 mmHg 62%
    12:00 +32°C° 0 mm 2 m/S 760 mmHg 58%
    13:00 +33°C° 0 mm 1 m/S 760 mmHg 54%
    14:00 +33°C° 0 mm 1 m/S 759 mmHg 53%
    15:00 +33°C° 0 mm 1 m/S 759 mmHg 53%
    16:00 +33°C° 0 mm 1 m/S 758 mmHg 52%
    17:00 +32°C° 0 mm 1 m/S 758 mmHg 56%
    18:00 +31°C° 0 mm 1 m/S 758 mmHg 61%
    19:00 +30°C° 0 mm 1 m/S 758 mmHg 66%
    20:00 +29°C° 0.4 mm 1 m/S 758 mmHg 71%
    21:00 +28°C° 0.4 mm 1 m/S 759 mmHg 76%
    22:00 +27°C° 0.4 mm 1 m/S 759 mmHg 81%
    23:00 +26°C° 0 mm 1 m/S 759 mmHg 82%
    Mehr zeigen